Regional Weather Roundup
Issued by NWS

Home | Current Version | Previous Version | Text Only | Print | Product List | Glossary Off
Versions: 1 2 3 4 5 6 7 8 9 10 11 12 13 14 15 16 17 18 19 20 21 22 23 24 25 26 27 28 29 30

000
ASUS45 KGTF 030310
RWRMT
MONTANA HOURLY WEATHER ROUNDUP
NATIONAL WEATHER SERVICE GREAT FALLS MT
900 PM MDT SAT MAY 02 2015

NOTE: "FAIR" INDICATES FEW OR NO CLOUDS BELOW 12000 FEET WITH NO
SIGNIFICANT WEATHER AND/OR OBSTRUCTIONS TO VISIBILITY.

MTZ001>007-043-030400-
WEST OF THE DIVIDE

CITY           SKY/WX    TMP DP  RH WIND       PRES   REMARKS
KALISPELL      CLEAR     56  17  21 NW5       29.86R
MISSOULA       CLEAR     58  19  22 N3        29.87R
BUTTE          CLOUDY    56   9  15 NW16      29.89R
DEER LODGE       N/A     54  12  19 NW8       29.91R
EUREKA           N/A     52  18  25 N3          N/A
LIBBY            N/A     54  27  35 CALM      29.89R
$$

MTZ008-052>055-030400-
SOUTHWEST MONTANA

CITY           SKY/WX    TMP DP  RH WIND       PRES   REMARKS
BOZEMAN        CLOUDY    59  22  24 NW5       29.83R
DILLON         MOCLDY    56  27  32 NE6       29.84R
$$

MTZ009-010-012-014-046-048-049-054-030400-
EAST SLOPES AND CENTRAL MONTANA

CITY           SKY/WX    TMP DP  RH WIND       PRES   REMARKS
CUT BANK       CLOUDY    44  29  55 N10       29.95R
GREAT FALLS    PTCLDY    50  31  48 NE14      29.89R
MALMSTROM AFB  PTCLDY    50  32  49 NE12      29.90R
HELENA         MOCLDY    62  12  14 W5        29.84R
$$

MTZ011-013-016-021-045-047-050-051-030400-
NORTH CENTRAL MONTANA

CITY           SKY/WX    TMP DP  RH WIND       PRES   REMARKS
HAVRE          CLOUDY    52  27  38 N16       29.90R
LEWISTOWN      MOCLDY    51  38  60 N12       29.86R
CHINOOK          N/A     52  28  40 N8        29.91R
FORT BENTON      N/A     52  30  43 N12       29.92R
$$

MTZ017>020-022>042-056>058-061-062-030400-
EASTERN PLAINS

CITY           SKY/WX    TMP DP  RH WIND       PRES   REMARKS
BAKER          CLOUDY    63  33  32 N9        29.75R
BILLINGS       CLOUDY    64  30  27 NE5       29.79R
GLASGOW        PTCLDY    52  34  50 N6        29.84R
JORDAN           N/A     58  36  43 N18       29.80R
LIVINGSTON     MOCLDY    62  23  22 W8        29.82R
MILES CITY     CLOUDY    67  33  28 NE16G24   29.74R
SIDNEY         CLOUDY    63  34  34 N13       29.77R
WOLF POINT     PTCLDY    56  35  45 N17       29.79R
BIG TIMBER       N/A     59  28  31 SW6       29.83R
FORSYTH          N/A     66  32  28 N3        29.75R
PLENTYWOOD       N/A     50  34  53 NW6       29.81R
POPLAR           N/A     55  36  47 N12       29.81R
$$

REGIONAL REPORTS...DAKOTAS

CITY           SKY/WX    TMP DP  RH WIND       PRES   REMARKS
WILLISTON      MOCLDY    60  35  39 N18       29.76R
MINOT          PTCLDY    59  34  39 NW13      29.68R
DICKINSON      PTCLDY    60  28  29 NW6       29.70R
BEACH          MOCLDY    57  32  38 NW7       29.76R
CROSBY         FAIR      50  34  53 NW9       29.79R
WATFORD CITY   FAIR      59  36  41 N7        29.74R
BISMARCK       PTCLDY    69  31  24 N6        29.66R
GRAND FORKS    PTCLDY    58  46  64 S5        29.58R
FARGO          MOCLDY    66  50  56 SE16G24   29.59R
BUFFALO SD       N/A     63  29  27 NE13      29.68R
RAPID CITY     PTCLDY    59  30  33 N9        29.74R
$$

REGIONAL REPORTS...WYOMING/IDAHO/WASHINGTON

CITY           SKY/WX    TMP DP  RH WIND       PRES   REMARKS
GILLETTE       MOCLDY    45  34  65 VRB6      29.78R
SHERIDAN       PTCLDY    53  37  54 S8        29.78R
BUFFALO WY     CLEAR     56  30  37 NW6       29.84R
CODY           CLOUDY    63  28  27 E5        29.82S
YELLOWSTONE LA   N/A     42  29  59 CALM      29.97R
IDAHO FALLS    CLEAR     67  25  20 SW14      29.80R
SALMON         PTCLDY    63  28  27 NE8       29.81R
BOISE          PTCLDY    73  26  17 W6        29.75R
SPOKANE        CLEAR     60  25  26 NW5       29.90R
$$

REGIONAL REPORTS...ALBERTA

CITY           SKY/WX    TMP DP  RH WIND       PRES   REMARKS
EDMONTON       RAIN      37  34  87 N12G21    29.94R WCI  30
CALGARY        MOCLDY    41  18  38 N6        29.94R
LETHBRIDGE     PTCLDY    45  34  65 SE5       29.95R
MEDICINE HAT   PTCLDY    46  19  34 NW10      29.91R
$$

REGIONAL REPORTS...SASKATCHEWAN

CITY           SKY/WX    TMP DP  RH WIND       PRES   REMARKS
SWIFT CURRENT  CLEAR     43  25  49 W6        29.84R
REGINA         PTCLDY    45  37  76 W12       29.80R
SASKATOON      MOCLDY    46  32  57 NW12      29.80R
$$



USA.gov is the U.S. government's official web portal to all federal, state and local government web resources and services.